#�ϑ�����,���ϕ���,���ϕ���,�ő啗��,�ő啗����������,�ő�u�ԕ���,�ő�u�ԕ�����������
#(�N����),(m/s)   ,(16����),(m/s)   ,(16����)        ,(m/s)       ,(16����)            
2015/4/21 0:01,3.5,3,3.7,3,4.2,4
2015/4/21 0:02,3.4,3,3.5,3,4.5,3
2015/4/21 0:03,3.5,3,3.5,3,8.1,5
2015/4/21 0:04,3.5,3,3.5,3,6.4,3
2015/4/21 0:05,3.8,3,3.8,3,8.7,3
2015/4/21 0:06,4,3,4,3,7.7,3
2015/4/21 0:07,4.2,3,4.2,3,7.5,4
2015/4/21 0:08,4.3,3,4.3,3,7.5,3
2015/4/21 0:09,4.4,3,4.5,3,9.4,3
2015/4/21 0:10,4.4,3,4.4,3,6.2,3
2015/4/21 0:11,4.5,3,4.5,3,6.4,3
2015/4/21 0:12,4.7,3,4.7,3,11.1,3
2015/4/21 0:13,4.7,3,4.8,3,6.9,3
2015/4/21 0:14,4.7,3,4.7,3,7.5,2
2015/4/21 0:15,4.6,3,4.8,3,7.1,1
2015/4/21 0:16,4.4,3,4.6,3,5.5,4
2015/4/21 0:17,4.2,3,4.4,3,6.1,3
2015/4/21 0:18,4,3,4.2,3,4.7,2
2015/4/21 0:19,3.8,2,3.9,3,7.9,3
2015/4/21 0:20,3.9,2,3.9,3,7.9,2
2015/4/21 0:21,3.9,2,3.9,3,8.2,2
2015/4/21 0:22,3.8,2,4,3,6.5,1
2015/4/21 0:23,3.5,2,3.8,3,4.2,4
2015/4/21 0:24,3.5,2,3.6,3,7.1,3
2015/4/21 0:25,3.4,2,3.5,3,5.5,3
2015/4/21 0:26,3.4,2,3.4,3,7,1
2015/4/21 0:27,3.4,1,3.4,3,5.8,2
2015/4/21 0:28,3.5,1,3.5,2,6.9,16
2015/4/21 0:29,3.8,1,3.8,2,8.4,16
2015/4/21 0:30,3.8,1,3.9,2,8.5,16
2015/4/21 0:31,3.8,1,3.9,2,8.7,2
2015/4/21 0:32,3.9,1,3.9,1,8.7,15
2015/4/21 0:33,4.1,1,4.1,1,7.2,1
2015/4/21 0:34,4.2,1,4.2,1,10.7,1
2015/4/21 0:35,4.5,1,4.5,1,10.6,3
2015/4/21 0:36,4.5,1,4.6,1,6.5,1
2015/4/21 0:37,4.5,1,4.5,1,6.4,1
2015/4/21 0:38,4.5,1,4.6,1,6.3,1
2015/4/21 0:39,4.2,1,4.5,1,5.8,3
2015/4/21 0:40,4,1,4.2,1,4.9,16
2015/4/21 0:41,3.9,1,4,1,4.4,2
2015/4/21 0:42,3.6,1,3.9,1,3,15
2015/4/21 0:43,3.5,1,3.6,1,6.3,16
2015/4/21 0:44,3.3,1,3.5,1,7.6,16
2015/4/21 0:45,3.2,1,3.3,1,7,1
2015/4/21 0:46,3.1,1,3.2,1,4.9,16
2015/4/21 0:47,2.9,1,3,1,3.6,1
2015/4/21 0:48,2.8,1,2.9,1,5.7,1
2015/4/21 0:49,2.9,1,2.9,1,7.2,16
2015/4/21 0:50,3.1,1,3.1,1,9.5,2
2015/4/21 0:51,3.3,1,3.3,1,7.9,2
2015/4/21 0:52,3.6,1,3.6,1,7.2,2
2015/4/21 0:53,3.6,1,3.6,1,6.3,15
2015/4/21 0:54,3.6,1,3.6,1,5.7,2
2015/4/21 0:55,3.4,1,3.6,1,5,2
2015/4/21 0:56,3.5,1,3.5,1,6.4,1
2015/4/21 0:57,3.8,1,3.8,1,6.8,3
2015/4/21 0:58,3.9,2,3.9,1,6.9,3
2015/4/21 0:59,3.9,2,3.9,1,5.2,4
2015/4/21 1:00,3.6,2,3.8,1,4.1,15
2015/4/21 1:01,3.4,1,3.6,1,4.3,2
2015/4/21 1:02,3.2,1,3.4,1,5.6,2
2015/4/21 1:03,3.1,2,3.3,1,5.2,1
2015/4/21 1:04,3,2,3.1,1,3.2,2
2015/4/21 1:05,3.1,2,3.1,1,6.2,2
2015/4/21 1:06,3.2,2,3.2,1,7.6,16
2015/4/21 1:07,3,1,3.2,1,5.7,16
2015/4/21 1:08,2.9,1,3,2,5,2
2015/4/21 1:09,2.9,1,3,2,6.5,1
2015/4/21 1:10,3,1,3,2,6.3,15
2015/4/21 1:11,3,1,3,1,7,14
2015/4/21 1:12,3.2,1,3.2,1,6,2
2015/4/21 1:13,3.2,1,3.2,2,5.8,1
2015/4/21 1:14,3.4,1,3.4,1,6.4,1
2015/4/21 1:15,3.4,1,3.5,1,7.1,16
2015/4/21 1:16,3.3,1,3.4,1,5.2,1
2015/4/21 1:17,3.2,1,3.3,1,5.1,1
2015/4/21 1:18,3.1,1,3.3,1,3.1,3
2015/4/21 1:19,3,1,3.1,1,4.7,1
2015/4/21 1:20,3,1,3,1,5.4,1
2015/4/21 1:21,3.1,1,3.1,1,5.2,16
2015/4/21 1:22,2.9,1,3.1,1,2.7,16
2015/4/21 1:23,2.7,1,2.9,1,3.3,16
2015/4/21 1:24,2.6,1,2.7,1,3.2,2
2015/4/21 1:25,2.5,1,2.6,1,6.2,1
2015/4/21 1:26,2.5,1,2.6,1,6.3,2
2015/4/21 1:27,2.5,1,2.5,1,7.1,16
2015/4/21 1:28,2.7,1,2.7,1,6.3,16
2015/4/21 1:29,2.9,1,2.9,1,6.2,1
2015/4/21 1:30,2.9,1,3,1,4.7,1
2015/4/21 1:31,2.8,1,2.9,1,3.9,1
2015/4/21 1:32,2.8,1,2.8,1,3.7,1
2015/4/21 1:33,2.8,1,2.8,1,4.8,2
2015/4/21 1:34,3,1,3,1,4.8,1
2015/4/21 1:35,3.1,1,3.1,1,4.9,16
2015/4/21 1:36,3.1,1,3.1,1,6.3,3
2015/4/21 1:37,3.2,2,3.3,1,6.8,3
2015/4/21 1:38,3.2,2,3.3,1,7.2,3
2015/4/21 1:39,3.3,2,3.3,1,8.1,1
2015/4/21 1:40,3.3,2,3.3,1,6.9,2
2015/4/21 1:41,3.7,2,3.7,2,8.9,1
2015/4/21 1:42,4.1,2,4.1,2,8.6,2
2015/4/21 1:43,4.3,2,4.3,2,7.6,2
2015/4/21 1:44,4.4,2,4.5,2,9.2,3
2015/4/21 1:45,4.6,2,4.6,2,6.4,2
2015/4/21 1:46,4.7,2,4.7,2,8.2,1
2015/4/21 1:47,4.6,2,4.7,2,5.4,1
2015/4/21 1:48,4.8,2,4.8,2,8.6,1
2015/4/21 1:49,4.8,2,4.9,2,7.8,2
2015/4/21 1:50,4.7,2,4.8,2,6.5,1
2015/4/21 1:51,4.5,2,4.7,2,6.4,1
2015/4/21 1:52,4.1,2,4.4,2,3.7,1
2015/4/21 1:53,4,2,4.1,2,6.4,1
2015/4/21 1:54,3.8,1,3.9,2,5.8,1
2015/4/21 1:55,3.9,2,3.9,2,7,1
2015/4/21 1:56,3.6,2,3.8,2,4.5,2
2015/4/21 1:57,3.7,2,3.7,2,5.2,1
2015/4/21 1:58,3.5,1,3.7,2,7.2,1
2015/4/21 1:59,3.2,1,3.5,2,3.3,2
2015/4/21 2:00,3.1,1,3.2,2,4.5,2
2015/4/21 2:01,3,1,3.1,2,5.1,14
2015/4/21 2:02,3,1,3.1,2,4.4,3
2015/4/21 2:03,2.9,1,3,2,4.7,16
2015/4/21 2:04,2.8,1,2.9,1,3.1,16
2015/4/21 2:05,2.6,1,2.8,1,5.6,3
2015/4/21 2:06,2.7,1,2.7,2,5.5,4
2015/4/21 2:07,2.5,1,2.7,2,4.9,3
2015/4/21 2:08,2.5,1,2.5,1,5.8,2
2015/4/21 2:09,2.5,1,2.6,1,5.6,2
2015/4/21 2:10,2.4,1,2.5,1,2.9,15
2015/4/21 2:11,2.6,1,2.6,1,5.8,1
2015/4/21 2:12,2.6,1,2.6,1,5.2,15
2015/4/21 2:13,2.8,1,2.8,1,7.2,15
2015/4/21 2:14,3,1,3,1,5.6,1
2015/4/21 2:15,3.1,1,3.1,1,6.2,1
2015/4/21 2:16,3.2,1,3.2,1,7,3
2015/4/21 2:17,3.1,1,3.3,1,5.7,2
2015/4/21 2:18,3,2,3.1,1,2.5,2
2015/4/21 2:19,3.1,1,3.1,1,7.9,2
2015/4/21 2:20,3.4,1,3.4,1,7.2,1
2015/4/21 2:21,3.5,2,3.5,1,7.6,2
2015/4/21 2:22,3.6,2,3.6,2,6.8,2
2015/4/21 2:23,3.6,2,3.7,2,7,16
2015/4/21 2:24,3.5,2,3.5,2,9.3,1
2015/4/21 2:25,3.7,2,3.7,2,9.5,1
2015/4/21 2:26,3.6,1,3.7,2,9.1,1
2015/4/21 2:27,3.7,1,3.7,2,5.5,1
2015/4/21 2:28,3.8,1,3.8,1,4.4,2
2015/4/21 2:29,3.9,1,3.9,1,6.3,16
2015/4/21 2:30,4,1,4,1,9.3,16
2015/4/21 2:31,3.9,1,4,1,7.5,1
2015/4/21 2:32,3.8,1,3.9,1,6.3,2
2015/4/21 2:33,3.8,1,3.8,1,6.1,3
2015/4/21 2:34,3.7,1,3.9,1,5,2
2015/4/21 2:35,3.5,1,3.7,1,6.2,2
2015/4/21 2:36,3.4,2,3.5,1,5.1,3
2015/4/21 2:37,3.3,2,3.4,1,4.9,4
2015/4/21 2:38,3.3,2,3.3,1,3.2,16
2015/4/21 2:39,3.1,2,3.2,1,4.5,2
2015/4/21 2:40,2.9,2,3.1,1,4.8,3
2015/4/21 2:41,3,2,3,1,8.1,2
2015/4/21 2:42,3.2,2,3.2,1,7.4,1
2015/4/21 2:43,3.2,2,3.2,1,6.7,15
2015/4/21 2:44,3.2,2,3.2,1,5.4,2
2015/4/21 2:45,3.4,1,3.4,2,8.1,1
2015/4/21 2:46,3.4,1,3.5,1,7.5,16
2015/4/21 2:47,3.5,1,3.5,1,5.7,16
2015/4/21 2:48,3.4,1,3.5,1,3,3
2015/4/21 2:49,3.4,1,3.5,1,4.3,16
2015/4/21 2:50,3.3,1,3.4,1,3.6,2
2015/4/21 2:51,3,1,3.3,1,3.5,1
2015/4/21 2:52,2.7,1,3,1,5,3
2015/4/21 2:53,2.6,1,2.7,1,3.5,16
2015/4/21 2:54,2.6,1,2.6,1,5.8,1
2015/4/21 2:55,2.5,1,2.6,1,6.2,4
2015/4/21 2:56,2.5,1,2.5,1,5.1,1
2015/4/21 2:57,2.7,1,2.7,1,7.9,3
2015/4/21 2:58,2.9,2,2.9,1,6.8,2
2015/4/21 2:59,2.9,2,2.9,1,3.5,1
2015/4/21 3:00,3,2,3,1,5.6,3
2015/4/21 3:01,3.2,2,3.2,2,7.1,2
2015/4/21 3:02,3.6,2,3.6,2,7.4,4
2015/4/21 3:03,3.7,2,3.8,2,7,3
2015/4/21 3:04,3.8,2,3.8,2,6.1,2
2015/4/21 3:05,3.9,2,3.9,2,6.8,4
2015/4/21 3:06,3.9,2,3.9,2,6,1
2015/4/21 3:07,3.8,2,3.9,2,6.3,3
2015/4/21 3:08,3.9,2,3.9,2,7.6,3
2015/4/21 3:09,4.2,2,4.2,2,7.1,3
2015/4/21 3:10,4.2,2,4.2,2,6.1,1
2015/4/21 3:11,4.1,2,4.2,2,4.2,3
2015/4/21 3:12,3.8,2,4,2,4.9,1
2015/4/21 3:13,3.6,2,3.7,2,3.6,1
2015/4/21 3:14,3.5,2,3.6,2,5,2
2015/4/21 3:15,3.5,1,3.5,2,6.4,1
2015/4/21 3:16,3.5,1,3.5,2,5.7,16
2015/4/21 3:17,3.5,2,3.5,2,5.2,3
2015/4/21 3:18,3.4,2,3.5,2,5.1,3
2015/4/21 3:19,3.2,2,3.3,2,5,16
2015/4/21 3:20,3.3,2,3.3,2,7,2
2015/4/21 3:21,3.4,1,3.4,2,5.4,1
2015/4/21 3:22,3.3,1,3.4,2,4.3,2
2015/4/21 3:23,3.4,2,3.4,2,4.7,1
2015/4/21 3:24,3.3,2,3.4,2,3.7,2
2015/4/21 3:25,3.1,2,3.3,1,3.9,2
2015/4/21 3:26,3,2,3.1,2,4.1,2
2015/4/21 3:27,2.7,2,2.9,2,3.2,15
2015/4/21 3:28,2.6,1,2.7,1,5.6,15
2015/4/21 3:29,2.7,1,2.7,1,8.6,15
2015/4/21 3:30,2.6,1,2.7,1,8.3,1
2015/4/21 3:31,2.6,1,2.6,1,5,1
2015/4/21 3:32,2.6,1,2.6,2,3.7,1
2015/4/21 3:33,2.6,1,2.6,2,3.8,16
2015/4/21 3:34,2.6,1,2.6,2,7.1,16
2015/4/21 3:35,2.7,1,2.7,2,4.5,1
2015/4/21 3:36,2.8,16,2.8,2,5,1
2015/4/21 3:37,3.1,1,3.1,1,6.3,16
2015/4/21 3:38,3.2,1,3.2,1,6.7,2
2015/4/21 3:39,3,1,3.2,1,5.8,1
2015/4/21 3:40,3,1,3.1,1,4.3,1
2015/4/21 3:41,3.1,1,3.1,1,7.7,16
2015/4/21 3:42,3.4,16,3.4,16,9,16
2015/4/21 3:43,3.4,1,3.4,16,4.9,1
2015/4/21 3:44,3.6,16,3.6,16,6.8,15
2015/4/21 3:45,3.6,16,3.6,16,6.7,15
2015/4/21 3:46,3.7,16,3.7,16,4.7,16
2015/4/21 3:47,3.6,16,3.7,16,4.5,15
2015/4/21 3:48,3.6,16,3.6,16,4.9,16
2015/4/21 3:49,3.5,16,3.6,16,4.7,16
2015/4/21 3:50,3.4,16,3.5,16,3.2,16
2015/4/21 3:51,3.3,16,3.5,16,4.5,16
2015/4/21 3:52,3,16,3.2,16,4.3,3
2015/4/21 3:53,3,16,3.1,16,6.9,2
2015/4/21 3:54,2.9,1,3.1,16,6.2,2
2015/4/21 3:55,2.9,1,2.9,16,4.9,3
2015/4/21 3:56,2.9,1,2.9,16,6.2,3
2015/4/21 3:57,3,2,3,16,5.7,3
2015/4/21 3:58,3,2,3,16,6.5,1
2015/4/21 3:59,3,2,3,16,4.8,1
2015/4/21 4:00,3,2,3,16,4.2,16
2015/4/21 4:01,3.2,2,3.2,16,4.7,16
2015/4/21 4:02,3.2,2,3.2,2,4.4,1
2015/4/21 4:03,3,2,3.2,2,2.9,1
2015/4/21 4:04,2.9,2,3,2,4.2,15
2015/4/21 4:05,2.8,1,3,2,3.9,15
2015/4/21 4:06,2.6,1,2.8,2,4.7,16
2015/4/21 4:07,2.4,1,2.6,2,4.3,2
2015/4/21 4:08,2.4,1,2.4,2,4.4,2
2015/4/21 4:09,2.3,1,2.4,2,3.6,4
2015/4/21 4:10,2.4,1,2.4,2,6.1,3
2015/4/21 4:11,2.6,1,2.6,2,6.9,3
2015/4/21 4:12,2.6,2,2.6,2,5.5,3
2015/4/21 4:13,2.8,2,2.8,2,6.8,4
2015/4/21 4:14,2.9,2,2.9,2,6.9,4
2015/4/21 4:15,3.2,2,3.2,2,7.7,2
2015/4/21 4:16,3.4,3,3.4,3,7.5,3
2015/4/21 4:17,3.5,2,3.5,2,6.9,2
2015/4/21 4:18,3.9,3,3.9,3,9,3
2015/4/21 4:19,4.1,3,4.1,3,5.7,6
2015/4/21 4:20,4.2,3,4.2,3,7.8,3
2015/4/21 4:21,4,3,4.2,3,6.3,3
2015/4/21 4:22,3.8,3,3.9,3,2.2,1
2015/4/21 4:23,3.7,3,3.8,3,5.4,1
2015/4/21 4:24,3.5,3,3.7,3,3.5,16
2015/4/21 4:25,3.3,3,3.5,3,4.3,15
2015/4/21 4:26,3.1,2,3.4,3,3.6,1
2015/4/21 4:27,3,2,3.1,3,3.8,3
2015/4/21 4:28,2.7,2,3,3,4.8,16
2015/4/21 4:29,2.5,2,2.6,3,4.4,15
2015/4/21 4:30,2.2,1,2.5,3,4.2,15
2015/4/21 4:31,2.2,1,2.2,3,3.2,2
2015/4/21 4:32,2.5,1,2.5,3,7.8,3
2015/4/21 4:33,2.7,1,2.7,3,7.5,3
2015/4/21 4:34,2.8,1,2.8,3,6.4,2
2015/4/21 4:35,3,1,3,2,7.6,2
2015/4/21 4:36,3.3,1,3.3,1,7.7,1
2015/4/21 4:37,3.5,1,3.5,1,5.4,1
2015/4/21 4:38,3.7,1,3.7,1,7.6,16
2015/4/21 4:39,3.9,1,3.9,1,5.6,16
2015/4/21 4:40,4,1,4,1,4.5,16
2015/4/21 4:41,4,1,4,1,3.1,16
2015/4/21 4:42,3.8,1,4,1,4.4,2
2015/4/21 4:43,3.5,1,3.7,1,4.4,2
2015/4/21 4:44,3.5,1,3.5,1,6.4,2
2015/4/21 4:45,3.2,1,3.5,1,4.3,2
2015/4/21 4:46,2.9,1,3.2,1,3.8,1
2015/4/21 4:47,2.7,1,2.9,1,4.3,16
2015/4/21 4:48,2.6,1,2.7,1,5.7,2
2015/4/21 4:49,2.4,1,2.6,1,5.1,1
2015/4/21 4:50,2.5,1,2.5,1,4.9,1
2015/4/21 4:51,2.5,1,2.5,1,4.2,2
2015/4/21 4:52,2.5,1,2.5,1,6.1,1
2015/4/21 4:53,2.7,1,2.7,1,7.9,1
2015/4/21 4:54,2.9,1,2.9,1,8.1,15
2015/4/21 4:55,3.1,1,3.1,1,7.5,2
2015/4/21 4:56,3.3,1,3.3,1,6.4,2
2015/4/21 4:57,3.3,1,3.3,1,3.9,2
2015/4/21 4:58,3.2,1,3.3,1,5.6,15
2015/4/21 4:59,3.3,1,3.3,1,5,3
2015/4/21 5:00,3.3,1,3.3,1,5.7,1
2015/4/21 5:01,3.5,1,3.5,1,5.7,16
2015/4/21 5:02,3.7,1,3.7,1,7.2,1
2015/4/21 5:03,3.7,1,3.7,1,7.5,15
2015/4/21 5:04,3.7,1,3.8,1,8.2,15
2015/4/21 5:05,3.5,1,3.7,1,7,14
2015/4/21 5:06,3.4,1,3.5,1,4.3,3
2015/4/21 5:07,3.4,1,3.4,1,4.9,1
2015/4/21 5:08,3.3,1,3.3,1,4.9,2
2015/4/21 5:09,3.2,1,3.3,1,6.4,1
2015/4/21 5:10,3.1,1,3.3,1,3.9,16
2015/4/21 5:11,3.1,1,3.1,1,6.1,1
2015/4/21 5:12,3,16,3.1,1,7.5,2
2015/4/21 5:13,2.8,16,2.9,1,4.4,1
2015/4/21 5:14,2.7,1,2.8,1,6.1,1
2015/4/21 5:15,2.8,1,2.8,1,5.6,16
2015/4/21 5:16,2.9,1,2.9,1,4.9,1
2015/4/21 5:17,3,1,3,1,4.7,1
2015/4/21 5:18,3.1,16,3.1,1,4.7,16
2015/4/21 5:19,3,16,3.1,1,4.2,16
2015/4/21 5:20,3.2,16,3.2,16,5.6,1
2015/4/21 5:21,3.1,16,3.2,16,5.8,2
2015/4/21 5:22,3,16,3.1,16,4.9,16
2015/4/21 5:23,3.1,1,3.1,16,6.2,1
2015/4/21 5:24,3.1,1,3.1,16,7,1
2015/4/21 5:25,2.9,1,3.1,16,4.8,15
2015/4/21 5:26,3,1,3,16,6.1,3
2015/4/21 5:27,3.2,1,3.2,16,8.9,3
2015/4/21 5:28,3.3,1,3.3,1,6.8,3
2015/4/21 5:29,3.4,2,3.4,1,5.6,3
2015/4/21 5:30,3.4,2,3.4,1,5.4,3
2015/4/21 5:31,3.6,2,3.6,2,6.5,3
2015/4/21 5:32,3.9,2,3.9,2,9.3,3
2015/4/21 5:33,4,2,4,2,7.8,3
2015/4/21 5:34,3.8,2,4,2,4.3,1
2015/4/21 5:35,3.9,2,3.9,2,5.2,1
2015/4/21 5:36,4,2,4,2,6.9,1
2015/4/21 5:37,3.6,2,3.9,2,2.7,2
2015/4/21 5:38,3.3,1,3.5,2,2.4,16
2015/4/21 5:39,3.1,1,3.2,2,4.7,3
2015/4/21 5:40,3.1,1,3.1,2,4.2,3
2015/4/21 5:41,2.8,1,3,2,4.2,16
2015/4/21 5:42,2.5,1,2.8,2,4.4,16
2015/4/21 5:43,2.4,1,2.5,2,4.5,1
2015/4/21 5:44,2.6,16,2.6,2,6,16
2015/4/21 5:45,2.7,16,2.7,2,5.2,16
2015/4/21 5:46,2.5,16,2.6,2,5.4,16
2015/4/21 5:47,2.5,1,2.5,2,3.2,15
2015/4/21 5:48,2.6,1,2.6,1,3.2,15
2015/4/21 5:49,2.6,16,2.6,1,4.3,16
2015/4/21 5:50,2.6,16,2.7,1,6,1
2015/4/21 5:51,2.5,16,2.6,1,2,5
2015/4/21 5:52,2.5,1,2.5,16,3.1,4
2015/4/21 5:53,2.5,1,2.6,16,6.9,4
2015/4/21 5:54,2.3,1,2.5,16,3.3,16
2015/4/21 5:55,2.2,1,2.3,16,3.9,3
2015/4/21 5:56,2.3,1,2.3,16,7.1,3
2015/4/21 5:57,2.6,2,2.6,16,6.3,3
2015/4/21 5:58,2.8,2,2.8,2,5.8,3
2015/4/21 5:59,3,3,3,3,6.4,3
2015/4/21 6:00,2.9,3,3,3,4.3,1
2015/4/21 6:01,3.2,2,3.2,3,8.1,2
2015/4/21 6:02,3.5,2,3.5,2,8.7,2
2015/4/21 6:03,3.4,2,3.5,2,4.2,1
2015/4/21 6:04,3.5,2,3.5,2,3.8,1
2015/4/21 6:05,3.6,2,3.6,2,4.5,1
2015/4/21 6:06,3.6,2,3.7,2,4.7,16
2015/4/21 6:07,3.4,1,3.6,2,4.1,1
2015/4/21 6:08,3.3,1,3.4,2,4.2,1
2015/4/21 6:09,3.2,1,3.3,2,5.2,16
2015/4/21 6:10,3.1,1,3.2,2,3.8,16
2015/4/21 6:11,2.9,1,3.1,2,3.1,1
2015/4/21 6:12,2.7,1,2.9,2,6.4,2
2015/4/21 6:13,2.7,1,2.7,2,4.8,3
2015/4/21 6:14,2.8,2,2.8,2,5,3
2015/4/21 6:15,2.9,2,2.9,2,7.9,3
2015/4/21 6:16,2.8,2,2.9,2,4.9,1
2015/4/21 6:17,2.8,2,2.9,1,4.4,15
2015/4/21 6:18,2.8,2,2.8,1,7.2,4
2015/4/21 6:19,2.9,2,2.9,1,6.8,3
2015/4/21 6:20,3.1,2,3.1,1,6.3,4
2015/4/21 6:21,3.2,2,3.2,2,5,3
2015/4/21 6:22,3.3,2,3.3,2,6.2,2
2015/4/21 6:23,3.5,2,3.5,2,6.1,3
2015/4/21 6:24,3.4,2,3.5,2,4.3,16
2015/4/21 6:25,3.3,2,3.5,2,5.7,1
2015/4/21 6:26,3.2,2,3.3,2,3.7,16
2015/4/21 6:27,3.2,2,3.2,2,1.8,2
2015/4/21 6:28,3,2,3.2,2,3,3
2015/4/21 6:29,2.9,1,3,2,4.2,15
2015/4/21 6:30,2.9,1,2.9,2,4.8,1
2015/4/21 6:31,3,16,3,2,7.5,15
2015/4/21 6:32,3.2,16,3.2,2,8.3,15
2015/4/21 6:33,3,16,3.1,2,4.5,2
2015/4/21 6:34,3.2,16,3.2,2,10.2,16
2015/4/21 6:35,3.3,16,3.3,2,9,15
2015/4/21 6:36,3.4,16,3.4,16,5.8,3
2015/4/21 6:37,3.7,16,3.7,16,6.2,16
2015/4/21 6:38,3.8,16,3.8,16,4.4,2
2015/4/21 6:39,3.8,1,3.9,16,4.8,2
2015/4/21 6:40,3.6,1,3.8,16,3,4
2015/4/21 6:41,3.3,1,3.6,16,3.3,16
2015/4/21 6:42,3.1,1,3.3,16,4.1,2
2015/4/21 6:43,3.1,1,3.1,16,3.8,3
2015/4/21 6:44,2.7,1,3.1,16,3.9,2
2015/4/21 6:45,2.4,1,2.7,16,2.9,2
2015/4/21 6:46,2.3,1,2.4,16,4.7,3
2015/4/21 6:47,2.2,2,2.3,16,4.5,3
2015/4/21 6:48,2.2,2,2.2,16,5,4
2015/4/21 6:49,2.3,2,2.3,1,8.5,3
2015/4/21 6:50,2.5,2,2.5,1,5.6,2
2015/4/21 6:51,2.6,2,2.6,1,5.7,2
2015/4/21 6:52,2.9,2,2.9,1,8.5,3
2015/4/21 6:53,3,2,3,1,5.1,2
2015/4/21 6:54,3.1,2,3.1,2,4.1,1
2015/4/21 6:55,3.3,2,3.3,2,6.5,2
2015/4/21 6:56,3.5,2,3.5,2,8.2,1
2015/4/21 6:57,3.8,2,3.8,2,9.3,2
2015/4/21 6:58,3.7,2,3.8,2,6.2,3
2015/4/21 6:59,3.7,2,3.8,2,7.6,1
2015/4/21 7:00,3.9,2,3.9,2,7.5,2
2015/4/21 7:01,3.7,2,3.9,2,4.1,1
2015/4/21 7:02,3.6,1,3.7,2,7.2,3
2015/4/21 7:03,3.5,1,3.6,2,4.8,3
2015/4/21 7:04,3.4,1,3.5,2,2.9,3
2015/4/21 7:05,3.4,2,3.4,2,4.2,2
2015/4/21 7:06,3.3,2,3.4,2,5.4,3
2015/4/21 7:07,3.3,2,3.3,2,7.2,3
2015/4/21 7:08,3.5,2,3.5,2,5.4,3
2015/4/21 7:09,3.5,2,3.5,2,6.8,3
2015/4/21 7:10,3.4,2,3.5,2,7,3
2015/4/21 7:11,3.5,2,3.5,2,5.7,3
2015/4/21 7:12,3.6,2,3.6,1,7,2
2015/4/21 7:13,3.7,2,3.7,2,6,16
2015/4/21 7:14,3.9,2,3.9,2,4.2,16
2015/4/21 7:15,3.8,2,3.8,2,3.7,2
2015/4/21 7:16,3.7,2,3.7,2,5.2,15
2015/4/21 7:17,3.4,2,3.7,2,5.2,16
2015/4/21 7:18,3.3,1,3.4,2,4.9,2
2015/4/21 7:19,3.1,1,3.3,2,3.7,3
2015/4/21 7:20,3,1,3.1,2,4.7,3
2015/4/21 7:21,3,2,3,2,4.8,3
2015/4/21 7:22,2.8,2,3,2,5.6,3
2015/4/21 7:23,2.8,2,2.9,2,6,2
2015/4/21 7:24,2.8,2,2.8,2,3.9,2
2015/4/21 7:25,2.9,2,2.9,2,4.4,1
2015/4/21 7:26,2.9,2,2.9,2,3.8,3
2015/4/21 7:27,3,2,3,2,5.8,2
2015/4/21 7:28,2.9,2,3,1,4.4,2
2015/4/21 7:29,3.2,2,3.2,2,7.4,3
2015/4/21 7:30,3.2,2,3.3,2,6.9,3
2015/4/21 7:31,3.1,2,3.2,2,4.9,1
2015/4/21 7:32,3,2,3.1,2,4.3,1
2015/4/21 7:33,2.9,2,3,2,3.1,15
2015/4/21 7:34,2.7,2,2.9,2,2.9,16
2015/4/21 7:35,2.5,1,2.7,2,1,16
2015/4/21 7:36,2.4,1,2.5,2,3.2,16
2015/4/21 7:37,2.3,1,2.4,2,3.6,1
2015/4/21 7:38,2.3,1,2.3,2,5.8,1
2015/4/21 7:39,2.3,1,2.4,2,5.7,1
2015/4/21 7:40,2.4,1,2.4,2,9.5,15
2015/4/21 7:41,2.6,1,2.6,2,8.5,15
2015/4/21 7:42,2.8,1,2.8,2,8.2,16
2015/4/21 7:43,3.2,1,3.2,1,9.1,1
2015/4/21 7:44,3.3,1,3.3,1,5.8,1
2015/4/21 7:45,3.5,1,3.5,1,4.7,1
2015/4/21 7:46,3.6,1,3.6,1,4.5,16
2015/4/21 7:47,3.6,1,3.6,1,4.1,1
2015/4/21 7:48,3.6,1,3.6,1,7.8,1
2015/4/21 7:49,3.5,1,3.6,1,3.8,16
2015/4/21 7:50,3.5,1,3.6,1,6,15
2015/4/21 7:51,3.2,1,3.4,1,5,1
2015/4/21 7:52,3.2,1,3.3,1,7.5,2
2015/4/21 7:53,3.1,1,3.2,1,7.9,1
2015/4/21 7:54,3.1,1,3.1,1,3.2,15
2015/4/21 7:55,2.9,1,3.1,1,2,16
2015/4/21 7:56,2.7,1,2.9,1,1.1,1
2015/4/21 7:57,2.6,1,2.6,1,2.5,2
2015/4/21 7:58,2.4,1,2.5,1,3.3,16
2015/4/21 7:59,2.4,1,2.4,1,3.7,1
2015/4/21 8:00,2.6,1,2.6,1,8.6,3
2015/4/21 8:01,2.6,2,2.6,1,5,4
2015/4/21 8:02,2.3,1,2.5,1,3.8,16
2015/4/21 8:03,2.1,1,2.2,1,5.1,16
2015/4/21 8:04,2.1,1,2.1,1,5.4,16
2015/4/21 8:05,2.4,1,2.4,1,6.2,15
2015/4/21 8:06,2.7,1,2.7,1,5.8,15
2015/4/21 8:07,2.8,1,2.8,1,4.8,16
2015/4/21 8:08,2.9,1,2.9,1,6.7,1
2015/4/21 8:09,3,1,3,1,6.3,1
2015/4/21 8:10,2.8,16,3.1,16,7.7,1
2015/4/21 8:11,2.8,16,2.8,16,5.5,2
2015/4/21 8:12,3,16,3,16,5.4,1
2015/4/21 8:13,3.1,16,3.1,16,5.6,1
2015/4/21 8:14,3.2,1,3.2,16,5.8,1
2015/4/21 8:15,3.3,1,3.3,1,7.8,16
2015/4/21 8:16,3.4,1,3.4,1,6.7,16
2015/4/21 8:17,3.4,1,3.5,1,4.5,16
2015/4/21 8:18,3.4,1,3.4,1,5.2,15
2015/4/21 8:19,3.3,1,3.4,1,4.4,1
2015/4/21 8:20,3.3,1,3.3,1,4.3,3
2015/4/21 8:21,3.2,1,3.3,1,3.6,2
2015/4/21 8:22,3.1,1,3.2,1,3.5,2
2015/4/21 8:23,3,1,3.1,1,5.1,1
2015/4/21 8:24,3.1,1,3.1,1,6.7,1
2015/4/21 8:25,3.1,1,3.2,1,7.2,2
2015/4/21 8:26,2.9,1,3.1,1,5.6,1
2015/4/21 8:27,3,1,3,1,6,16
2015/4/21 8:28,3.1,1,3.1,1,5.5,1
2015/4/21 8:29,3,1,3.1,1,4.4,1
2015/4/21 8:30,2.9,1,3,1,4.4,15
2015/4/21 8:31,2.9,1,2.9,1,4.1,16
2015/4/21 8:32,2.9,1,2.9,1,6.1,16
2015/4/21 8:33,2.9,1,3,1,6,16
2015/4/21 8:34,2.9,1,3,1,6.5,2
2015/4/21 8:35,2.7,16,2.8,1,4.4,16
2015/4/21 8:36,2.7,16,2.8,1,2.9,1
2015/4/21 8:37,2.4,16,2.6,1,1.4,16
2015/4/21 8:38,2.3,16,2.4,1,6.2,3
2015/4/21 8:39,2.5,1,2.5,1,5.5,3
2015/4/21 8:40,2.5,1,2.5,1,3.3,2
2015/4/21 8:41,2.4,1,2.5,1,3.2,4
2015/4/21 8:42,2.3,2,2.5,1,2.6,2
2015/4/21 8:43,2.2,2,2.3,1,3.7,1
2015/4/21 8:44,2.1,2,2.2,1,3.7,1
2015/4/21 8:45,2,2,2.1,16,3.9,2
2015/4/21 8:46,2.2,2,2.2,16,5.4,3
2015/4/21 8:47,2.4,3,2.4,1,4.5,3
2015/4/21 8:48,2.3,3,2.4,1,3.5,2
2015/4/21 8:49,2.1,3,2.3,1,3.5,1
2015/4/21 8:50,2.1,3,2.1,1,4.2,16
2015/4/21 8:51,2.1,2,2.1,1,3,15
2015/4/21 8:52,2.2,2,2.2,3,3.5,1
2015/4/21 8:53,2.1,2,2.2,3,3.9,16
2015/4/21 8:54,2.1,2,2.1,3,3.3,15
2015/4/21 8:55,2.1,1,2.1,3,3.7,14
2015/4/21 8:56,2,1,2.1,3,4.8,16
2015/4/21 8:57,2,16,2,3,4.5,15
2015/4/21 8:58,2.1,16,2.1,3,3.8,1
2015/4/21 8:59,2.1,16,2.1,2,4.5,5
2015/4/21 9:00,2,16,2.1,2,3.5,5
2015/4/21 9:01,1.9,16,2,2,1.8,6
2015/4/21 9:02,1.7,16,1.9,2,0.5,2
2015/4/21 9:03,1.6,15,1.7,2,0.9,11
2015/4/21 9:04,1.5,16,1.6,2,1,16
2015/4/21 9:05,1.4,16,1.5,1,0.8,16
2015/4/21 9:06,1.1,1,1.3,16,0.6,16
2015/4/21 9:07,0.9,1,1,16,0.4,11
2015/4/21 9:08,0.6,16,0.9,16,0.1,15
2015/4/21 9:09,0.5,16,0.6,16,3,3
2015/4/21 9:10,0.6,16,0.6,16,2.9,2
2015/4/21 9:11,0.8,1,0.8,16,3.6,3
2015/4/21 9:12,0.9,1,0.9,16,3.9,1
2015/4/21 9:13,1.1,1,1.1,15,3.8,1
2015/4/21 9:14,1.2,2,1.2,16,4.8,3
2015/4/21 9:15,1.4,2,1.4,2,3.2,3
2015/4/21 9:16,1.4,2,1.4,2,1.9,3
2015/4/21 9:17,1.5,3,1.5,2,1.4,7
2015/4/21 9:18,1.5,3,1.5,2,0.6,8
2015/4/21 9:19,1.4,3,1.5,2,1.8,2
2015/4/21 9:20,1.5,3,1.5,2,5,1
2015/4/21 9:21,1.4,3,1.5,2,2.4,16
2015/4/21 9:22,1.4,3,1.5,2,3.1,16
2015/4/21 9:23,1.5,3,1.5,2,5.2,3
2015/4/21 9:24,1.6,3,1.6,3,4.7,3
2015/4/21 9:25,1.7,2,1.7,3,6.2,16
2015/4/21 9:26,1.8,2,1.8,2,5.1,1
2015/4/21 9:27,2.1,2,2.1,2,5.1,2
2015/4/21 9:28,2.4,2,2.4,2,5,2
2015/4/21 9:29,2.7,1,2.7,1,9.1,3
2015/4/21 9:30,2.8,2,2.8,2,6.9,2
2015/4/21 9:31,3,2,3,2,5.6,2
2015/4/21 9:32,3,1,3,2,5.5,1
2015/4/21 9:33,3,1,3.1,1,4.8,1
2015/4/21 9:34,3,1,3,1,5.7,16
2015/4/21 9:35,3,1,3,1,4.9,1
2015/4/21 9:36,3.2,1,3.2,1,6.5,2
2015/4/21 9:37,3.1,1,3.2,1,6.1,3
2015/4/21 9:38,3.4,2,3.4,1,8.1,3
2015/4/21 9:39,3.6,1,3.7,2,8.6,3
2015/4/21 9:40,3.5,1,3.6,2,6.4,1
2015/4/21 9:41,3.3,1,3.5,2,2.9,3
2015/4/21 9:42,3.3,1,3.4,2,4.7,15
2015/4/21 9:43,3.3,1,3.3,2,4.3,1
2015/4/21 9:44,3.5,1,3.5,2,6.9,16
2015/4/21 9:45,3.6,1,3.6,2,6.9,2
2015/4/21 9:46,3.6,1,3.7,2,6.5,1
2015/4/21 9:47,3.4,1,3.6,2,4.5,16
2015/4/21 9:48,3.2,1,3.5,2,6.7,2
2015/4/21 9:49,3,1,3.1,1,6.1,2
2015/4/21 9:50,3,1,3,1,5,3
2015/4/21 9:51,3.1,1,3.1,1,3.8,2
2015/4/21 9:52,3.3,1,3.3,1,7.5,2
2015/4/21 9:53,3.5,1,3.5,1,8.4,15
2015/4/21 9:54,3.3,1,3.5,1,5,2
2015/4/21 9:55,3.1,1,3.3,1,5,1
2015/4/21 9:56,3.2,1,3.2,1,6.5,1
2015/4/21 9:57,3.3,1,3.3,1,5,16
2015/4/21 9:58,3.3,1,3.3,1,5.2,2
2015/4/21 9:59,3.2,1,3.3,1,5.4,14
2015/4/21 10:00,3.2,1,3.2,1,7.2,2
2015/4/21 10:01,3.4,1,3.4,1,6.2,2
2015/4/21 10:02,3.3,1,3.4,1,5.1,3
2015/4/21 10:03,3.2,1,3.2,1,8.5,1
2015/4/21 10:04,3.5,1,3.5,1,10.1,16
2015/4/21 10:05,3.7,1,3.8,1,8.6,16
2015/4/21 10:06,3.5,1,3.7,1,5,1
2015/4/21 10:07,3.5,1,3.5,1,5.1,3
2015/4/21 10:08,3.6,1,3.6,1,5.8,1
2015/4/21 10:09,3.9,1,3.9,1,8.4,16
2015/4/21 10:10,3.9,1,3.9,1,8.9,1
2015/4/21 10:11,4.1,1,4.1,1,8.3,1
2015/4/21 10:12,4.3,1,4.3,1,10.1,16
2015/4/21 10:13,4.2,1,4.4,1,5.8,2
2015/4/21 10:14,4.1,1,4.2,1,9,2
2015/4/21 10:15,4.1,1,4.2,1,9.1,2
2015/4/21 10:16,4.1,1,4.1,1,5.1,2
2015/4/21 10:17,4.5,1,4.5,1,9.9,1
2015/4/21 10:18,4.6,1,4.6,1,6.5,16
2015/4/21 10:19,4.5,1,4.6,1,6,1
2015/4/21 10:20,4.2,16,4.5,1,3.7,16
2015/4/21 10:21,4.1,16,4.2,1,6.8,16
2015/4/21 10:22,4,16,4.1,1,7,16
2015/4/21 10:23,4,16,4,1,6.1,1
2015/4/21 10:24,3.9,16,4,1,5.7,1
2015/4/21 10:25,3.9,16,3.9,1,7,1
2015/4/21 10:26,4.1,16,4.1,1,7.7,2
2015/4/21 10:27,3.7,16,4.1,1,7.2,16
2015/4/21 10:28,3.8,16,3.8,1,7.8,15
2015/4/21 10:29,4.2,16,4.2,1,11.4,16
2015/4/21 10:30,4.6,16,4.6,16,10.3,16
2015/4/21 10:31,4.5,16,4.6,16,7.5,16
2015/4/21 10:32,5,16,5,16,12.3,15
2015/4/21 10:33,5.2,16,5.2,16,9.1,15
2015/4/21 10:34,5.6,16,5.6,16,11.9,15
2015/4/21 10:35,5.9,16,5.9,16,14,1
2015/4/21 10:36,6.2,16,6.2,16,12.8,16
2015/4/21 10:37,6.6,16,6.6,16,10.5,1
2015/4/21 10:38,6.9,16,6.9,16,12.5,16
2015/4/21 10:39,7,16,7.1,16,10.9,16
2015/4/21 10:40,6.9,16,7,16,9.4,2
2015/4/21 10:41,6.8,16,6.9,16,8.1,16
2015/4/21 10:42,6.9,16,6.9,16,13.6,1
2015/4/21 10:43,6.9,16,6.9,16,11.1,1
2015/4/21 10:44,6.8,16,7,16,9.5,16
2015/4/21 10:45,6.6,16,6.9,16,7.1,15
2015/4/21 10:46,6.1,16,6.6,16,5.1,3
2015/4/21 10:47,5.8,16,6.1,16,6.1,1
2015/4/21 10:48,5.3,16,5.7,16,5.7,2
2015/4/21 10:49,4.9,16,5.3,16,6.3,14
2015/4/21 10:50,4.7,16,4.9,16,5.4,1
2015/4/21 10:51,4.8,16,4.9,16,6.2,1
2015/4/21 10:52,4.2,16,4.7,16,7.2,16
2015/4/21 10:53,4,16,4.2,16,7.2,16
2015/4/21 10:54,3.7,16,3.9,16,5.6,2
2015/4/21 10:55,3.9,16,3.9,16,10.5,1
2015/4/21 10:56,4.1,1,4.1,16,11.3,16
2015/4/21 10:57,4.1,1,4.1,16,7.2,16
2015/4/21 10:58,4.4,1,4.4,16,9.1,2
2015/4/21 10:59,4.5,1,4.5,16,7.8,1
2015/4/21 11:00,4.4,1,4.5,16,5.1,1
2015/4/21 11:01,4.6,1,4.6,16,10.3,16
2015/4/21 11:02,4.6,1,4.7,1,6.5,1
2015/4/21 11:03,4.6,1,4.6,1,7.2,16
2015/4/21 11:04,4.8,1,4.8,1,7.4,2
2015/4/21 11:05,4.4,1,4.7,1,6.1,15
2015/4/21 11:06,4.2,1,4.4,1,6.8,2
2015/4/21 11:07,4.5,1,4.5,1,9.2,16
2015/4/21 11:08,4.2,1,4.5,1,7.6,1
2015/4/21 11:09,4.2,1,4.2,1,7.9,1
2015/4/21 11:10,4.6,1,4.6,1,11.4,1
2015/4/21 11:11,4.5,1,4.7,1,10,16
2015/4/21 11:12,4.3,1,4.5,1,4.5,16
2015/4/21 11:13,4.3,1,4.4,1,7.7,2
2015/4/21 11:14,4.5,1,4.5,1,9.3,2
2015/4/21 11:15,4.5,1,4.5,1,4.3,16
2015/4/21 11:16,4.9,1,4.9,1,12.2,2
2015/4/21 11:17,4.9,1,4.9,1,11.7,16
2015/4/21 11:18,5.1,1,5.1,1,9.4,1
2015/4/21 11:19,5.1,1,5.1,1,11.8,15
2015/4/21 11:20,5.3,1,5.4,1,11.6,16
2015/4/21 11:21,5.4,1,5.4,1,10.9,1
2015/4/21 11:22,5.8,1,5.8,1,10.3,15
2015/4/21 11:23,5.7,1,5.8,1,8.9,16
2015/4/21 11:24,5.5,16,5.6,1,7.2,1
2015/4/21 11:25,5.6,1,5.6,1,7.1,2
2015/4/21 11:26,5.2,1,5.6,1,4.9,16
2015/4/21 11:27,5,1,5.1,1,6.9,16
2015/4/21 11:28,5,1,5,1,11.3,2
2015/4/21 11:29,5.1,1,5.2,1,10.3,16
2015/4/21 11:30,4.8,1,5,1,9.1,16
2015/4/21 11:31,4.8,1,5,1,11.3,1
2015/4/21 11:32,4.8,1,4.8,1,8.5,1
2015/4/21 11:33,4.8,1,4.8,1,6.7,2
2015/4/21 11:34,4.9,1,4.9,1,8.5,1
2015/4/21 11:35,5.2,1,5.2,1,11,1
2015/4/21 11:36,5.4,1,5.4,1,9,2
2015/4/21 11:37,5.4,1,5.5,1,7.4,2